Time,TemperatureF,DewpointF,PressureIn,WindDirection,WindDirectionDegrees,WindSpeedMPH,WindSpeedGustMPH,Humidity,HourlyPrecipIn,Conditions,Clouds,dailyrainin,SolarRadiationWatts/m^2,SoftwareType,DateUTC
2013-03-02 00:02:00,59.0,48.0,-100.00,NW,311,5.0,-999.0,67,0.00,,,-99.99,0.000000,,2013-03-02 05:02:00,
2013-03-02 00:12:00,59.0,48.0,-100.00,NW,305,6.0,-999.0,67,0.00,,,-99.99,0.000000,,2013-03-02 05:12:00,
2013-03-02 00:22:00,59.0,48.0,-100.00,NW,305,6.0,-999.0,67,0.00,,,-99.99,0.000000,,2013-03-02 05:22:00,
2013-03-02 00:32:00,59.0,48.0,-100.00,NW,313,5.0,-999.0,68,0.00,,,-99.99,0.000000,,2013-03-02 05:32:00,
2013-03-02 00:42:00,59.0,48.0,-100.00,NW,309,7.0,-999.0,68,0.00,,,-99.99,0.000000,,2013-03-02 05:42:00,
2013-03-02 00:52:00,59.0,48.0,-100.00,NW,309,7.0,-999.0,68,0.00,,,-99.99,0.000000,,2013-03-02 05:52:00,
2013-03-02 01:01:00,58.0,48.0,-100.00,NW,308,7.0,-999.0,68,0.00,,,-99.99,0.000000,,2013-03-02 06:01:00,
2013-03-02 01:11:00,58.0,48.0,-100.00,NW,308,7.0,-999.0,69,0.00,,,-99.99,0.000000,,2013-03-02 06:11:00,
2013-03-02 01:21:00,58.0,48.0,-100.00,NW,308,7.0,-999.0,69,0.00,,,-99.99,0.000000,,2013-03-02 06:21:00,
2013-03-02 01:32:00,58.0,48.0,-100.00,NW,307,8.0,-999.0,68,0.00,,,-99.99,0.000000,,2013-03-02 06:32:00,
2013-03-02 01:42:00,58.0,48.0,-100.00,NW,316,7.0,-999.0,69,0.00,,,-99.99,0.000000,,2013-03-02 06:42:00,
2013-03-02 01:52:00,58.0,48.0,-100.00,NW,316,7.0,-999.0,69,0.00,,,-99.99,0.000000,,2013-03-02 06:52:00,
2013-03-02 02:01:00,57.0,48.0,-100.00,NW,320,7.0,-999.0,70,0.00,,,-99.99,0.000000,,2013-03-02 07:01:00,
2013-03-02 02:11:00,57.0,47.0,-100.00,NW,313,7.0,-999.0,70,0.00,,,-99.99,0.000000,,2013-03-02 07:11:00,
2013-03-02 02:21:00,57.0,47.0,-100.00,NW,313,7.0,-999.0,70,0.00,,,-99.99,0.000000,,2013-03-02 07:21:00,
2013-03-02 02:32:00,57.0,46.0,-100.00,NW,317,8.0,-999.0,67,0.00,,,-99.99,0.000000,,2013-03-02 07:32:00,
2013-03-02 02:42:00,57.0,45.0,-100.00,NW,316,9.0,-999.0,64,0.00,,,-99.99,0.000000,,2013-03-02 07:42:00,
2013-03-02 02:52:00,57.0,45.0,-100.00,NW,316,9.0,-999.0,64,0.00,,,-99.99,0.000000,,2013-03-02 07:52:00,
2013-03-02 03:01:00,56.0,44.0,-100.00,NW,317,7.0,-999.0,63,0.00,,,-99.99,0.000000,,2013-03-02 08:01:00,
2013-03-02 03:11:00,56.0,45.0,-100.00,NW,313,6.0,-999.0,64,0.00,,,-99.99,0.000000,,2013-03-02 08:11:00,
2013-03-02 03:22:00,56.0,45.0,-100.00,NW,313,6.0,-999.0,64,0.00,,,-99.99,0.000000,,2013-03-02 08:22:00,
2013-03-02 03:32:00,56.0,44.0,-100.00,NW,320,8.0,-999.0,62,0.00,,,-99.99,0.000000,,2013-03-02 08:32:00,
2013-03-02 03:42:00,56.0,43.0,-100.00,NW,320,7.0,-999.0,62,0.00,,,-99.99,0.000000,,2013-03-02 08:42:00,
2013-03-02 03:52:00,56.0,43.0,-100.00,NW,320,7.0,-999.0,62,0.00,,,-99.99,0.000000,,2013-03-02 08:52:00,
2013-03-02 04:02:00,56.0,43.0,-100.00,NW,316,7.0,-999.0,62,0.00,,,-99.99,0.000000,,2013-03-02 09:02:00,
2013-03-02 04:11:00,56.0,43.0,-100.00,NW,321,8.0,-999.0,62,0.00,,,-99.99,0.000000,,2013-03-02 09:11:00,
2013-03-02 04:21:00,56.0,43.0,-100.00,NW,321,8.0,-999.0,62,0.00,,,-99.99,0.000000,,2013-03-02 09:21:00,
2013-03-02 04:32:00,56.0,44.0,-100.00,NW,316,7.0,-999.0,63,0.00,,,-99.99,0.000000,,2013-03-02 09:32:00,
2013-03-02 04:42:00,56.0,44.0,-100.00,NW,317,8.0,-999.0,64,0.00,,,-99.99,0.000000,,2013-03-02 09:42:00,
2013-03-02 04:52:00,56.0,44.0,-100.00,NW,317,8.0,-999.0,64,0.00,,,-99.99,0.000000,,2013-03-02 09:52:00,
2013-03-02 05:01:00,55.0,44.0,-100.00,NW,318,7.0,-999.0,65,0.00,,,-99.99,0.000000,,2013-03-02 10:01:00,
2013-03-02 05:16:00,55.0,44.0,-100.00,NW,315,7.0,-999.0,65,0.00,,,-99.99,0.000000,,2013-03-02 10:16:00,
2013-03-02 05:22:00,55.0,44.0,-100.00,NW,315,7.0,-999.0,65,0.00,,,-99.99,0.000000,,2013-03-02 10:22:00,
2013-03-02 05:32:00,55.0,43.0,-100.00,NW,323,7.0,-999.0,64,0.00,,,-99.99,0.000000,,2013-03-02 10:32:00,
2013-03-02 05:43:00,55.0,44.0,-100.00,NW,325,6.0,-999.0,64,0.00,,,-99.99,0.000000,,2013-03-02 10:43:00,
2013-03-02 05:52:00,55.0,44.0,-100.00,NW,325,6.0,-999.0,64,0.00,,,-99.99,0.000000,,2013-03-02 10:52:00,
2013-03-02 06:01:00,55.0,44.0,-100.00,NW,319,7.0,-999.0,64,0.00,,,-99.99,0.000000,,2013-03-02 11:01:00,
2013-03-02 06:11:00,55.0,44.0,-100.00,NW,320,8.0,-999.0,64,0.00,,,-99.99,0.000000,,2013-03-02 11:11:00,
2013-03-02 06:21:00,55.0,44.0,-100.00,NW,320,8.0,-999.0,64,0.00,,,-99.99,0.000000,,2013-03-02 11:21:00,
2013-03-02 06:32:00,55.0,44.0,-100.00,NW,322,7.0,-999.0,65,0.00,,,-99.99,0.000000,,2013-03-02 11:32:00,
2013-03-02 06:42:00,55.0,44.0,-100.00,NNW,330,6.0,-999.0,66,0.00,,,-99.99,0.000000,,2013-03-02 11:42:00,
2013-03-02 06:52:00,55.0,44.0,-100.00,NNW,330,6.0,-999.0,66,0.00,,,-99.99,0.000000,,2013-03-02 11:52:00,
2013-03-02 07:02:00,55.0,44.0,-100.00,NNW,330,6.0,-999.0,65,0.00,,,-99.99,0.100000,,2013-03-02 12:02:00,
2013-03-02 07:11:00,55.0,44.0,-100.00,NNW,341,6.0,-999.0,66,0.00,,,-99.99,1.600000,,2013-03-02 12:11:00,
2013-03-02 07:21:00,55.0,44.0,-100.00,NNW,341,6.0,-999.0,66,0.00,,,-99.99,1.600000,,2013-03-02 12:21:00,
2013-03-02 07:33:00,55.0,44.0,-100.00,North,355,5.0,-999.0,66,0.00,,,-99.99,4.600000,,2013-03-02 12:33:00,
2013-03-02 07:43:00,55.0,44.0,-100.00,North,356,9.0,-999.0,66,0.00,,,-99.99,17.100000,,2013-03-02 12:43:00,
2013-03-02 07:53:00,55.0,44.0,-100.00,North,356,9.0,-999.0,66,0.00,,,-99.99,17.100000,,2013-03-02 12:53:00,
2013-03-02 08:01:00,55.0,44.0,-100.00,North,351,7.0,-999.0,67,0.00,,,-99.99,37.099998,,2013-03-02 13:01:00,
2013-03-02 08:11:00,55.0,45.0,-100.00,North,354,7.0,-999.0,68,0.00,,,-99.99,46.500000,,2013-03-02 13:11:00,
2013-03-02 08:22:00,55.0,45.0,-100.00,North,354,7.0,-999.0,68,0.00,,,-99.99,46.500000,,2013-03-02 13:22:00,
2013-03-02 08:32:00,55.0,45.0,-100.00,North,356,8.0,-999.0,68,0.00,,,-99.99,47.500000,,2013-03-02 13:32:00,
2013-03-02 08:42:00,55.0,44.0,-100.00,North,3,8.0,-999.0,67,0.00,,,-99.99,70.800003,,2013-03-02 13:42:00,
2013-03-02 08:52:00,55.0,44.0,-100.00,North,3,8.0,-999.0,67,0.00,,,-99.99,70.800003,,2013-03-02 13:52:00,
2013-03-02 09:01:00,55.0,43.0,-100.00,North,4,8.0,-999.0,65,0.00,,,-99.99,92.699997,,2013-03-02 14:01:00,
2013-03-02 09:11:00,54.0,43.0,-100.00,North,358,7.0,-999.0,65,0.00,,,-99.99,92.500000,,2013-03-02 14:11:00,
2013-03-02 09:22:00,54.0,43.0,-100.00,North,358,7.0,-999.0,65,0.00,,,-99.99,92.500000,,2013-03-02 14:22:00,
2013-03-02 09:32:00,54.0,42.0,-100.00,North,5,7.0,-999.0,63,0.00,,,-99.99,133.699997,,2013-03-02 14:32:00,
2013-03-02 09:42:00,55.0,42.0,-100.00,NNE,14,6.0,-999.0,61,0.00,,,-99.99,172.699997,,2013-03-02 14:42:00,
2013-03-02 09:52:00,55.0,42.0,-100.00,NNE,14,6.0,-999.0,61,0.00,,,-99.99,172.699997,,2013-03-02 14:52:00,
2013-03-02 10:02:00,55.0,42.0,-100.00,NNE,20,5.0,-999.0,60,0.00,,,-99.99,247.500000,,2013-03-02 15:02:00,
2013-03-02 10:11:00,56.0,41.0,-100.00,North,10,7.0,-999.0,58,0.00,,,-99.99,298.500000,,2013-03-02 15:11:00,
2013-03-02 10:21:00,56.0,41.0,-100.00,North,10,7.0,-999.0,58,0.00,,,-99.99,298.500000,,2013-03-02 15:21:00,
2013-03-02 10:32:00,56.0,41.0,-100.00,North,11,4.0,-999.0,56,0.00,,,-99.99,259.799988,,2013-03-02 15:32:00,
2013-03-02 10:42:00,57.0,41.0,-100.00,North,4,4.0,-999.0,55,0.00,,,-99.99,241.699997,,2013-03-02 15:42:00,
2013-03-02 10:52:00,57.0,41.0,-100.00,North,4,4.0,-999.0,55,0.00,,,-99.99,241.699997,,2013-03-02 15:52:00,
2013-03-02 11:02:00,57.0,41.0,-100.00,North,1,5.0,-999.0,55,0.00,,,-99.99,263.399994,,2013-03-02 16:02:00,
2013-03-02 11:11:00,58.0,41.0,-100.00,NNW,343,4.0,-999.0,54,0.00,,,-99.99,321.399994,,2013-03-02 16:11:00,
2013-03-02 11:21:00,58.0,41.0,-100.00,NNW,343,4.0,-999.0,54,0.00,,,-99.99,321.399994,,2013-03-02 16:21:00,
2013-03-02 11:32:00,59.0,41.0,-100.00,NNW,340,5.0,-999.0,52,0.00,,,-99.99,377.899994,,2013-03-02 16:32:00,
2013-03-02 11:42:00,59.0,41.0,-100.00,North,357,6.0,-999.0,50,0.00,,,-99.99,424.100006,,2013-03-02 16:42:00,
2013-03-02 11:52:00,59.0,41.0,-100.00,North,357,6.0,-999.0,50,0.00,,,-99.99,424.100006,,2013-03-02 16:52:00,
2013-03-02 12:01:00,60.0,41.0,-100.00,NW,324,5.0,-999.0,48,0.00,,,-99.99,347.100006,,2013-03-02 17:01:00,
2013-03-02 12:11:00,61.0,41.0,-100.00,NNW,327,6.0,-999.0,47,0.00,,,-99.99,398.000000,,2013-03-02 17:11:00,
2013-03-02 12:21:00,61.0,41.0,-100.00,NNW,327,6.0,-999.0,47,0.00,,,-99.99,398.000000,,2013-03-02 17:21:00,
2013-03-02 12:32:00,61.0,40.0,-100.00,NNW,337,8.0,-999.0,46,0.00,,,-99.99,356.500000,,2013-03-02 17:32:00,
2013-03-02 12:42:00,61.0,41.0,-100.00,NNW,335,8.0,-999.0,47,0.00,,,-99.99,379.299988,,2013-03-02 17:42:00,
2013-03-02 12:52:00,61.0,41.0,-100.00,NNW,335,8.0,-999.0,47,0.00,,,-99.99,379.299988,,2013-03-02 17:52:00,
2013-03-02 13:02:00,62.0,43.0,-100.00,NW,323,8.0,-999.0,48,0.00,,,-99.99,617.700012,,2013-03-02 18:02:00,
2013-03-02 13:12:00,64.0,44.0,-100.00,NW,326,9.0,-999.0,47,0.00,,,-99.99,682.000000,,2013-03-02 18:12:00,
2013-03-02 13:22:00,64.0,44.0,-100.00,NW,326,9.0,-999.0,47,0.00,,,-99.99,682.000000,,2013-03-02 18:22:00,
2013-03-02 13:32:00,65.0,44.0,-100.00,NNW,341,8.0,-999.0,46,0.00,,,-99.99,709.000000,,2013-03-02 18:32:00,
2013-03-02 13:42:00,64.0,44.0,-100.00,NNW,346,9.0,-999.0,46,0.00,,,-99.99,809.000000,,2013-03-02 18:42:00,
2013-03-02 13:52:00,64.0,44.0,-100.00,NNW,346,9.0,-999.0,46,0.00,,,-99.99,809.000000,,2013-03-02 18:52:00,
2013-03-02 14:01:00,64.0,44.0,-100.00,NNW,331,9.0,-999.0,47,0.00,,,-99.99,553.599976,,2013-03-02 19:01:00,
2013-03-02 14:12:00,65.0,45.0,-100.00,NW,318,11.0,-999.0,48,0.00,,,-99.99,824.000000,,2013-03-02 19:12:00,
2013-03-02 14:22:00,65.0,45.0,-100.00,NW,318,11.0,-999.0,48,0.00,,,-99.99,824.000000,,2013-03-02 19:22:00,
2013-03-02 14:32:00,66.0,46.0,-100.00,NW,311,13.0,-999.0,47,0.00,,,-99.99,651.500000,,2013-03-02 19:32:00,
2013-03-02 14:42:00,66.0,44.0,-100.00,NW,305,15.0,-999.0,45,0.00,,,-99.99,689.700012,,2013-03-02 19:42:00,
2013-03-02 14:52:00,66.0,44.0,-100.00,NW,305,15.0,-999.0,45,0.00,,,-99.99,689.700012,,2013-03-02 19:52:00,
2013-03-02 15:01:00,66.0,44.0,-100.00,NW,314,14.0,-999.0,44,0.00,,,-99.99,581.900024,,2013-03-02 20:01:00,
2013-03-02 15:11:00,65.0,44.0,-100.00,NW,310,14.0,-999.0,47,0.00,,,-99.99,454.899994,,2013-03-02 20:11:00,
2013-03-02 15:22:00,65.0,44.0,-100.00,NW,310,14.0,-999.0,47,0.00,,,-99.99,454.899994,,2013-03-02 20:22:00,
2013-03-02 15:32:00,65.0,44.0,-100.00,NW,312,12.0,-999.0,45,0.00,,,-99.99,612.700012,,2013-03-02 20:32:00,
2013-03-02 15:42:00,65.0,44.0,-100.00,NW,312,11.0,-999.0,46,0.00,,,-99.99,650.799988,,2013-03-02 20:42:00,
2013-03-02 15:53:00,65.0,44.0,-100.00,NW,312,11.0,-999.0,46,0.00,,,-99.99,650.799988,,2013-03-02 20:53:00,
2013-03-02 16:02:00,65.0,44.0,-100.00,NNW,335,10.0,-999.0,45,0.00,,,-99.99,595.799988,,2013-03-02 21:02:00,
2013-03-02 16:11:00,64.0,43.0,-100.00,NW,320,11.0,-999.0,45,0.00,,,-99.99,447.600006,,2013-03-02 21:11:00,
2013-03-02 16:22:00,64.0,43.0,-100.00,NW,320,11.0,-999.0,45,0.00,,,-99.99,447.600006,,2013-03-02 21:22:00,
2013-03-02 16:32:00,63.0,42.0,-100.00,NW,309,14.0,-999.0,46,0.00,,,-99.99,329.200012,,2013-03-02 21:32:00,
2013-03-02 16:42:00,63.0,41.0,-100.00,NW,313,11.0,-999.0,45,0.00,,,-99.99,401.500000,,2013-03-02 21:42:00,
2013-03-02 16:52:00,63.0,41.0,-100.00,NW,313,11.0,-999.0,45,0.00,,,-99.99,401.500000,,2013-03-02 21:52:00,
2013-03-02 17:02:00,63.0,41.0,-100.00,WNW,303,15.0,-999.0,45,0.00,,,-99.99,324.200012,,2013-03-02 22:02:00,
2013-03-02 17:11:00,62.0,41.0,-100.00,NW,313,10.0,-999.0,47,0.00,,,-99.99,105.900002,,2013-03-02 22:11:00,
2013-03-02 17:22:00,62.0,41.0,-100.00,NW,313,10.0,-999.0,47,0.00,,,-99.99,105.900002,,2013-03-02 22:22:00,
2013-03-02 17:32:00,62.0,42.0,-100.00,NW,316,8.0,-999.0,48,0.00,,,-99.99,165.300003,,2013-03-02 22:32:00,
2013-03-02 17:42:00,61.0,42.0,-100.00,NW,305,11.0,-999.0,49,0.00,,,-99.99,92.800003,,2013-03-02 22:42:00,
2013-03-02 17:52:00,61.0,42.0,-100.00,NW,305,11.0,-999.0,49,0.00,,,-99.99,92.800003,,2013-03-02 22:52:00,
2013-03-02 18:01:00,61.0,42.0,-100.00,NW,318,7.0,-999.0,50,0.00,,,-99.99,52.900002,,2013-03-02 23:01:00,
2013-03-02 18:11:00,60.0,42.0,-100.00,NW,310,7.0,-999.0,49,0.00,,,-99.99,53.299999,,2013-03-02 23:11:00,
2013-03-02 18:21:00,60.0,42.0,-100.00,NW,310,7.0,-999.0,49,0.00,,,-99.99,53.299999,,2013-03-02 23:21:00,
2013-03-02 18:32:00,60.0,42.0,-100.00,NW,316,5.0,-999.0,51,0.00,,,-99.99,25.299999,,2013-03-02 23:32:00,
2013-03-02 18:42:00,60.0,42.0,-100.00,NW,326,4.0,-999.0,52,0.00,,,-99.99,6.200000,,2013-03-02 23:42:00,
2013-03-02 18:52:00,60.0,42.0,-100.00,NW,326,4.0,-999.0,52,0.00,,,-99.99,6.200000,,2013-03-02 23:52:00,
2013-03-02 19:02:00,59.0,43.0,-100.00,NNW,327,6.0,-999.0,53,0.00,,,-99.99,0.200000,,2013-03-03 00:02:00,
2013-03-02 19:11:00,59.0,41.0,-100.00,NW,318,8.0,-999.0,52,0.00,,,-99.99,0.000000,,2013-03-03 00:11:00,
2013-03-02 19:22:00,59.0,41.0,-100.00,NW,318,8.0,-999.0,52,0.00,,,-99.99,0.000000,,2013-03-03 00:22:00,
2013-03-02 19:32:00,58.0,41.0,-100.00,NW,314,6.0,-999.0,51,0.00,,,-99.99,0.000000,,2013-03-03 00:32:00,
2013-03-02 19:42:00,58.0,41.0,-100.00,NNW,327,5.0,-999.0,54,0.00,,,-99.99,0.000000,,2013-03-03 00:42:00,
2013-03-02 19:52:00,58.0,41.0,-100.00,NNW,327,5.0,-999.0,54,0.00,,,-99.99,0.000000,,2013-03-03 00:52:00,
2013-03-02 20:01:00,57.0,42.0,-100.00,NNW,330,5.0,-999.0,56,0.00,,,-99.99,0.000000,,2013-03-03 01:01:00,
2013-03-02 20:11:00,57.0,43.0,-100.00,NW,326,5.0,-999.0,57,0.00,,,-99.99,0.000000,,2013-03-03 01:11:00,
2013-03-02 20:21:00,57.0,43.0,-100.00,NW,326,5.0,-999.0,57,0.00,,,-99.99,0.000000,,2013-03-03 01:21:00,
2013-03-02 20:32:00,57.0,43.0,-100.00,NW,324,4.0,-999.0,59,0.00,,,-99.99,0.000000,,2013-03-03 01:32:00,
2013-03-02 20:42:00,57.0,43.0,-100.00,NW,322,3.0,-999.0,59,0.00,,,-99.99,0.000000,,2013-03-03 01:42:00,
2013-03-02 20:52:00,57.0,43.0,-100.00,NW,322,3.0,-999.0,59,0.00,,,-99.99,0.000000,,2013-03-03 01:52:00,
2013-03-02 21:01:00,56.0,43.0,-100.00,NW,319,3.0,-999.0,60,0.00,,,-99.99,0.000000,,2013-03-03 02:01:00,
2013-03-02 21:11:00,56.0,43.0,-100.00,NW,319,2.0,-999.0,61,0.00,,,-99.99,0.000000,,2013-03-03 02:11:00,
2013-03-02 21:21:00,56.0,43.0,-100.00,NW,319,2.0,-999.0,61,0.00,,,-99.99,0.000000,,2013-03-03 02:21:00,
2013-03-02 21:32:00,56.0,43.0,-100.00,NW,319,2.0,-999.0,62,0.00,,,-99.99,0.000000,,2013-03-03 02:32:00,
2013-03-02 21:42:00,56.0,44.0,-100.00,NW,318,2.0,-999.0,63,0.00,,,-99.99,0.000000,,2013-03-03 02:42:00,
2013-03-02 21:52:00,56.0,44.0,-100.00,NW,318,2.0,-999.0,63,0.00,,,-99.99,0.000000,,2013-03-03 02:52:00,
2013-03-02 22:01:00,56.0,44.0,-100.00,NW,323,2.0,-999.0,63,0.00,,,-99.99,0.000000,,2013-03-03 03:01:00,
2013-03-02 22:11:00,56.0,44.0,-100.00,NW,317,3.0,-999.0,63,0.00,,,-99.99,0.000000,,2013-03-03 03:11:00,
2013-03-02 22:21:00,56.0,44.0,-100.00,NW,317,3.0,-999.0,63,0.00,,,-99.99,0.000000,,2013-03-03 03:21:00,
2013-03-02 22:32:00,56.0,43.0,-100.00,NW,324,2.0,-999.0,62,0.00,,,-99.99,0.000000,,2013-03-03 03:32:00,
2013-03-02 22:42:00,55.0,43.0,-100.00,NW,305,1.0,-999.0,64,0.00,,,-99.99,0.000000,,2013-03-03 03:42:00,
2013-03-02 22:52:00,55.0,43.0,-100.00,NW,305,1.0,-999.0,64,0.00,,,-99.99,0.000000,,2013-03-03 03:52:00,
2013-03-02 23:01:00,55.0,44.0,-100.00,NW,304,2.0,-999.0,65,0.00,,,-99.99,0.000000,,2013-03-03 04:01:00,
2013-03-02 23:11:00,53.0,43.0,-100.00,NW,309,2.0,-999.0,68,0.00,,,-99.99,0.000000,,2013-03-03 04:11:00,
2013-03-02 23:21:00,53.0,43.0,-100.00,NW,309,2.0,-999.0,68,0.00,,,-99.99,0.000000,,2013-03-03 04:21:00,
2013-03-02 23:32:00,52.0,43.0,-100.00,NW,322,1.0,-999.0,71,0.00,,,-99.99,0.000000,,2013-03-03 04:32:00,
2013-03-02 23:42:00,51.0,43.0,-100.00,NW,308,1.0,-999.0,73,0.00,,,-99.99,0.000000,,2013-03-03 04:42:00,
2013-03-02 23:52:00,51.0,43.0,-100.00,NW,308,1.0,-999.0,73,0.00,,,-99.99,0.000000,,2013-03-03 04:52:00,